Weather History for Key West, FL

Change the Weather History Date:

Sunday, January 5, 2014

  Actual Average Record
Temperature  
Mean Temperature 75 °F 69 °F  
Max Temperature 80 °F 74 °F 84 °F (1942)
Min Temperature 69 °F 64 °F 46 °F (2001)
Degree Days  
Heating Degree Days 0 1  
Month to date heating degree days 0 5  
Since 1 July heating degree days 0 23  
Cooling Degree Days 10 5  
Month to date cooling degree days 43 27  
Year to date cooling degree days 43 27  
Growing Degree Days 24 (Base 50)    
Moisture  
Dew Point 70 °F    
Average Humidity 88    
Maximum Humidity 100    
Minimum Humidity 76    
Precipitation  
Precipitation 0.18 in 0.05 in 2.60 in (1906)
Month to date precipitation 4.31 0.29  
Year to date precipitation 4.31 0.29  
Snow  
Snow 0.00 in - - ()
Month to date snowfall 0.0  
Since 1 July snowfall 0.0  
Snow Depth 0.00 in    
Sea Level Pressure  
Sea Level Pressure 30.01 in    
Wind  
Wind Speed 10 mph (SSE)    
Max Wind Speed 30 mph    
Max Gust Speed 39 mph    
Visibility 9 miles    
Events Rain    
T = Trace of Precipitation, MM = Missing Value Source: NWS Daily Summary

Daily Weather History Graph

Daily Weather History Graph

Search for Another Location

Airport:

Trip Planner

Search our weather history database for the weather conditions in past years. The results will help you decide how hot, cold, wet, or windy it might be!

Date:

Astronomy

Jan. 05, 2014 Rise Set
Actual Time 7:12 AM EST 5:52 PM EST
Civil Twilight 6:47 AM EST 6:17 PM EST
Nautical Twilight 6:19 AM EST 6:45 PM EST
Astronomical Twilight 5:51 AM EST 7:13 PM EST
Moon 10:25 AM EST (1/5) 10:43 PM EST (1/5)
Length of Visible Light 11h 30m
Length of Day
10h 40m
Waxing Crescent, 24% of the Moon is Illuminated
Jan 5
Waxing Crescent
Jan 7
First Quarter
Jan 15
Full
Jan 24
Last Quarter
Jan 30
New

Hourly Weather History & Observations

Time (EST) Temp. Heat Index Dew Point Humidity Pressure Visibility Wind Dir Wind Speed Gust Speed Precip Events Conditions
12:03 AM 70.0 °F - 69.1 °F 97% 30.08 in 5.0 mi North 10.4 mph - 0.03 in Rain Rain
12:53 AM 69.1 °F - 69.1 °F 100% 30.08 in 5.0 mi North 5.8 mph - 0.14 in Rain Rain
1:53 AM 69.1 °F - 69.1 °F 100% 30.04 in 10.0 mi ENE 9.2 mph - 0.05 in Rain Light Rain
2:53 AM 71.1 °F - 69.1 °F 93% 29.99 in 10.0 mi East 18.4 mph 26.5 mph 0.01 in Rain Light Rain
3:53 AM 73.0 °F - 68.0 °F 84% 29.96 in 10.0 mi ESE 24.2 mph 34.5 mph 0.00 in   Mostly Cloudy
4:53 AM 73.9 °F - 66.9 °F 79% 29.94 in 10.0 mi ESE 23.0 mph - 0.00 in Rain Light Rain
5:53 AM 73.9 °F - 66.0 °F 76% 29.93 in 10.0 mi ESE 20.7 mph - 0.00 in   Clear
6:53 AM 73.9 °F - 69.1 °F 85% 29.96 in 10.0 mi SE 19.6 mph 28.8 mph N/A   Clear
7:53 AM 75.0 °F - 68.0 °F 79% 29.99 in 10.0 mi SSE 19.6 mph 28.8 mph N/A   Clear
8:53 AM 75.0 °F - 69.1 °F 82% 30.01 in 10.0 mi SSE 17.3 mph 26.5 mph N/A   Scattered Clouds
9:53 AM 77.0 °F - 70.0 °F 79% 30.04 in 10.0 mi SSE 6.9 mph - N/A   Overcast
10:53 AM 78.1 °F - 71.1 °F 79% 30.04 in 10.0 mi SSE 10.4 mph - N/A   Clear
11:53 AM 79.0 °F - 72.0 °F 79% 30.03 in 10.0 mi SSE 8.1 mph - N/A   Clear
12:53 PM 78.1 °F - 72.0 °F 81% 30.00 in 10.0 mi South 9.2 mph - N/A   Mostly Cloudy
1:15 PM 79.0 °F - 73.0 °F 82% 29.99 in 10.0 mi South 8.1 mph - N/A   Mostly Cloudy
1:53 PM 80.1 °F 84.2 °F 73.0 °F 79% 29.98 in 10.0 mi South 10.4 mph - N/A   Clear
2:53 PM 79.0 °F - 73.0 °F 82% 29.97 in 10.0 mi SSW 9.2 mph - N/A   Clear
3:53 PM 78.1 °F - 72.0 °F 81% 29.98 in 10.0 mi WSW 8.1 mph - N/A   Clear
4:53 PM 78.1 °F - 72.0 °F 81% 29.99 in 10.0 mi WSW 6.9 mph - N/A   Clear
5:53 PM 77.0 °F - 70.0 °F 79% 29.99 in 10.0 mi Calm Calm - N/A   Clear
6:53 PM 73.9 °F - 70.0 °F 87% 30.01 in 10.0 mi Calm Calm - N/A   Clear
7:53 PM 73.0 °F - 71.1 °F 93% 30.02 in 10.0 mi Calm Calm - N/A   Clear
8:53 PM 73.0 °F - 71.1 °F 93% 30.03 in 9.0 mi Calm Calm - N/A   Clear
9:53 PM 72.0 °F - 71.1 °F 97% 30.04 in 9.0 mi Calm Calm - N/A   Clear
10:53 PM 71.1 °F - 70.0 °F 96% 30.03 in 9.0 mi Calm Calm - N/A   Clear
11:53 PM 71.1 °F - 70.0 °F 96% 30.02 in 10.0 mi Calm Calm - N/A   Clear